Regional Weather Roundup
Issued by NWS

Home | Current Version | Previous Version | Text Only | Print | Product List | Glossary Off
Versions: 1 2 3 4 5 6 7 8 9 10 11 12 13 14 15 16 17 18 19 20 21 22 23 24 25 26 27 28 29 30 31 32 33 34 35 36 37 38 39 40 41 42 43 44 45 46 47 48 49 50

944
ASUS43 KLSX 260210
RWRMO

WEATHER SUMMARY FOR MISSOURI
NATIONAL WEATHER SERVICE SPRINGFIELD MO
900 PM CDT SUN JUN 25 2017

NOTE: "FAIR" INDICATES FEW OR NO CLOUDS BELOW 12,000 FEET WITH NO
       SIGNIFICANT WEATHER AND/OR OBSTRUCTIONS TO VISIBILITY.
       CURRENT SKY AND/OR WEATHER CONDITIONS ARE NOT AVAILABLE FOR
       CHILLICOTHE AND FARMINGTON.

MOZ001>031-035>038-043-044-053-054-260300-
...NORTHERN AND WESTERN MISSOURI...

CITY           SKY/WX    TMP DP  RH WIND       PRES   REMARKS
KANSAS CTY INT PTCLDY    60  51  72 SW7       30.23S
KANSAS C DTWN  PTCLDY    64  53  67 W5        30.23S
LEE`S SUMMIT   CLOUDY    63  53  70 W3        30.23F
ST JOSEPH      CLEAR     65  54  67 SW5       30.23R
CHILLICOTHE      N/A     65  52  62 CALM      30.22S
KIRKSVILLE     CLEAR     63  49  60 W3        30.20F

$$
MOZ066>068-077>081-088>096-101>105-260300-
...SOUTHWEST MISSOURI...

CITY           SKY/WX    TMP DP  RH WIND       PRES   REMARKS
SPRINGFIELD    CLEAR     71  57  61 N7        30.21F
JOPLIN         CLOUDY    71  56  58 NE8       30.23R
BRANSON        PTCLDY    72  57  60 CALM      30.22F

$$
MOZ032>034-039>042-045>050-055>058-069>072-260300-
...CENTRAL MISSOURI...

CITY           SKY/WX    TMP DP  RH WIND       PRES   REMARKS
COLUMBIA       CLOUDY    70  50  49 NW7       30.20F
JEFFERSON CITY CLOUDY    72  52  49 W6        30.19F
ROLLA          CLOUDY    69  52  54 NW6       30.20S
SEDALIA        CLOUDY    66  52  60 W8        30.23S
WHITEMAN AFB   CLOUDY    65  53  65 W6        30.21F
WARRENSBURG    CLOUDY    63  50  63 NW6       30.23S
OSAGE BEACH    CLOUDY    71  48  43 NW3       30.22S

$$
MOZ051-052-059>065-260300-
...EAST CENTRAL MISSOURI...

CITY           SKY/WX    TMP DP  RH WIND       PRES   REMARKS
ST LOUIS INTL  PTCLDY    74  45  35 NW8       30.17F
SPIRIT OF STL  PTCLDY    72  48  42 NW6       30.16F
ST CHARLES     PTCLDY    70  48  45 NW6       30.16F

$$
MOZ072>076-082>087-097>100-106>115-260300-
...SOUTH CENTRAL AND SOUTHEAST MISSOURI...

CITY           SKY/WX    TMP DP  RH WIND       PRES   REMARKS
CAPE GIRARDEAU CLEAR     70  58  65 SW3       30.15S
FARMINGTON     PTCLDY    74  51  44 NW8       30.19S
POPLAR BLUFF   CLEAR     74  62  66 CALM      30.15S
WEST PLAINS    PTCLDY    72  55  55 NW3       30.22S

$$




USA.gov is the U.S. government's official web portal to all federal, state and local government web resources and services.